240  
ASCA42 TJSJ 170410  
RWRPR  
PUERTO RICO/U.S. VIRGIN ISLANDS HOURLY WEATHER ROUNDUP  
NATIONAL WEATHER SERVICE SAN JUAN PR  
1200 AM AST THU JAN 17 2019  
 
PRZ001>002-007>008-010-170500-  
PUERTO RICO  
 
CITY SKY/WX TMP DP RH WIND PRES REMARKS
 
SAN JUAN LMM PTCLDY 73 68 83 E12 30.10F  
CEIBA CLOUDY 75 70 83 SE7 30.10F  

 
 
VIZ001>002-170500-  
U.S. VIRGIN ISLANDS  
 
CITY SKY/WX TMP DP RH WIND PRES REMARKS
 
CHARLOTTE AMA CLOUDY 77 66 69 E7 30.08F  
CHRISTIANSTED CLEAR 73 70 88 NE6 30.09F  

 
 
HOURLY WEATHER ROUNDUP FOR THE NEWS MEDIA  
 
CITY SKY/WX TMP DP RH WIND PRES REMARKS
 
ORLANDO FAIR 47 44 90 CALM 30.27R  
NEW YORK MOCLDY 36 20 52 NW15 30.22R WCI 27  
NEWARK MOCLDY 36 18 48 NW14 30.22R WCI 27  
CHICAGO CLOUDY 28 20 71 E10 30.25F WCI 19  
HARTFORD FAIR 31 22 69 NW8 30.11R WCI 23  
BOSTON FAIR 35 12 38 W14 30.11R WCI 26  
DALLAS CLOUDY 57 54 89 S10G21 30.08R  
PHILADELPHIA FAIR 34 22 61 W9 30.26R WCI 27  
LOS ANGELES LGT RAIN 59 58 96 VRB6 30.16 FOG  
WASHINGTON DC CLOUDY 37 25 61 NW6 30.30R WCI 32  
 
CLICK HERE TO GO TO PREVIOUS BULLETINS.

The Nexlab PR Page Main Text Page